{"data":{"norad_id":59511,"epoch":"2026-09-21T08:23:35.384640Z","epoch_age_seconds":91673,"freshness":"FRESH","line1":"1 59511U 24073A   26264.34971510  .00001087  00000+0  49028-4 0  9999","line2":"2 59511  43.0036 292.6678 0001426 253.3088 106.7607 15.27581979136103","mean_motion":15.27581979,"eccentricity":0.0001426,"inclination_deg":43.0036,"raan_deg":292.6678,"arg_perigee_deg":253.3088,"mean_anomaly_deg":106.7607,"bstar":4.9028e-5,"rev_number":13610,"period_min":94.266626589996,"perigee_km":482.06476591584,"apogee_km":484.02157450038,"semimajor_km":6861.1801702081,"source":"CELESTRAK","updated_at":"2026-09-22T09:00:48.962162Z"}}